EW3845 Weather Reports


Display with metric or nautical units.
time (UTC)temp
F
wind
direction
speed
MPH
gust
MPH
rain 1hr
in
rain 24hr
in
rain mn
in
humidity
%
barometer
mb
20260510063024 53 21 0.0 0.0 0.00 0.00 0.00 86 1012.9
20260510061523 53 21 0.0 0.0 0.00 0.00 0.00 87 1013.0
20260510060022 52 21 0.0 0.0 0.00 0.00 0.00 87 1013.0
20260510054522 52 21 0.0 0.0 0.00 0.00 0.00 87 1012.9
20260510053025 51 21 0.0 0.0 0.00 0.00 0.00 87 1012.9
20260510051521 50 21 0.0 0.0 0.00 0.00 0.00 87 1012.9
20260510050026 50 21 0.0 0.0 0.00 0.00 0.00 86 1012.9
20260510044529 50 21 0.0 0.0 0.00 0.00 0.00 86 1012.9
20260510043018 50 21 0.0 0.0 0.00 0.00 0.00 85 1013.1
20260510041518 50 21 0.0 0.0 0.00 0.00 0.00 85 1013.1
20260510040014 51 21 0.0 0.0 0.00 0.00 0.00 84 1013.1
20260510034511 51 21 0.0 0.0 0.00 0.00 0.00 83 1013.1
20260510033010 52 21 0.0 0.0 0.00 0.00 0.00 83 1013.1
20260510031508 52 21 0.0 0.0 0.00 0.00 0.00 82 1013.1
20260510030006 53 21 0.0 0.0 0.00 0.00 0.00 82 1013.3
20260510024505 53 21 0.0 0.0 0.00 0.00 0.00 81 1013.4
20260510023003 53 21 0.0 0.0 0.00 0.00 0.00 81 1013.3
20260510021506 53 21 0.0 0.0 0.00 0.00 0.00 81 1013.5
20260510020002 54 21 0.0 0.0 0.00 0.00 0.00 81 1013.6
20260510014601 54 21 0.0 0.0 0.00 0.00 0.00 81 1013.6
20260510013103 53 21 0.0 0.0 0.00 0.00 0.00 80 1013.6
20260510011602 53 21 0.0 0.0 0.00 0.00 0.00 81 1013.6
20260510010105 53 21 0.0 0.0 0.00 0.00 0.00 80 1013.6
20260510004556 53 21 0.0 0.0 0.00 0.00 0.00 80 1013.7
20260510003056 53 21 0.0 0.0 0.00 0.00 0.00 79 1013.8
20260510001554 53 21 0.0 0.0 0.00 0.00 0.00 78 1013.9
20260510000104 54 21 0.0 0.0 0.00 0.00 0.00 77 1014.0
20260509234557 54 21 0.0 0.0 0.00 0.00 0.00 76 1014.3
20260509233049 54 21 0.0 0.0 0.00 0.00 0.00 75 1014.3
20260509231547 55 21 0.0 0.0 0.00 0.00 0.00 75 1014.4
20260509230042 55 21 0.0 0.0 0.00 0.00 0.00 74 1014.5
20260509224540 56 21 0.0 0.0 0.00 0.00 0.00 73 1014.6
20260509223042 56 21 0.0 0.0 0.00 0.00 0.00 73 1014.6
20260509221540 57 21 0.0 0.0 0.00 0.00 0.00 72 1014.7
20260509220036 57 21 0.0 0.0 0.00 0.00 0.00 72 1014.8
20260509214535 58 21 0.0 0.0 0.00 0.00 0.00 71 1014.8
20260509213038 58 21 0.0 0.0 0.00 0.00 0.00 70 1014.8
20260509211533 58 21 0.0 0.0 0.00 0.00 0.00 70 1014.9
20260509210040 58 21 0.0 0.0 0.00 0.00 0.00 70 1015.0
20260509204539 59 22 0.0 0.0 0.00 0.00 0.00 70 1015.0
20260509203032 59 22 0.0 0.0 0.00 0.00 0.00 70 1015.1
20260509201532 59 22 0.0 0.0 0.00 0.00 0.00 69 1015.0
20260509200034 60 22 0.0 0.0 0.00 0.00 0.00 68 1015.0
20260509194534 60 22 0.0 0.0 0.00 0.00 0.00 68 1014.9
20260509193030 61 22 0.0 0.0 0.00 0.00 0.00 68 1014.9
20260509191529 61 22 0.0 0.0 0.00 0.00 0.00 67 1014.9
20260509190032 62 22 0.0 0.0 0.00 0.00 0.00 66 1014.7
20260509184541 63 22 0.0 0.0 0.00 0.00 0.00 63 1014.6
20260509183031 64 22 0.0 0.0 0.00 0.00 0.00 61 1014.4
20260509181527 65 22 0.0 0.0 0.00 0.00 0.00 60 1014.3
20260509180026 66 23 0.0 0.0 0.00 0.00 0.00 59 1014.4
20260509174533 67 21 0.0 0.0 0.00 0.00 0.00 58 1014.3
20260509173025 67 15 0.0 0.0 0.00 0.00 0.00 58 1014.2
20260509171531 67 15 0.0 0.0 0.00 0.00 0.00 56 1014.1
20260509170024 68 38 0.0 0.0 0.00 0.00 0.00 54 1014.1
20260509164523 68 38 0.0 0.0 0.00 0.00 0.00 50 1014.2
20260509163024 69 38 0.0 0.0 0.00 0.00 0.00 52 1014.5
20260509161523 69 38 0.0 0.0 0.00 0.00 0.00 51 1014.6
20260509160021 69 38 0.0 0.0 0.00 0.00 0.00 53 1014.5
20260509154519 69 38 0.0 0.0 0.00 0.00 0.00 50 1014.6
20260509153030 69 39 0.0 0.0 0.00 0.00 0.00 49 1014.7
20260509151517 69 37 0.0 0.0 0.00 0.00 0.00 50 1014.9
20260509150026 69 37 0.0 0.0 0.00 0.00 0.00 50 1015.0
20260509144526 69 35 0.0 0.0 0.00 0.00 0.00 49 1015.0
20260509143018 70 325 0.0 0.0 0.00 0.00 0.00 50 1015.2
20260509141516 70 33 0.0 0.0 0.00 0.00 0.00 48 1015.3
20260509140008 71 40 0.0 0.0 0.00 0.00 0.00 50 1015.5
20260509135606 72 40 0.0 0.0 0.00 0.00 0.00 48 1015.6
20260509135054 72 40 0.0 0.0 0.00 0.00 0.00 49 1015.8
20260509134647 71 40 0.0 0.0 0.00 0.00 0.00 49 1015.7
20260509134546 72 40 0.0 0.0 0.00 0.00 0.00 49 1015.7
20260509134051 72 42 0.0 0.0 0.00 0.00 0.00 50 1015.8
20260509133542 72 42 0.0 0.0 0.00 0.00 0.00 51 1015.9
20260509133153 71 27 0.0 0.0 0.00 0.00 0.00 49 1015.8
20260509133052 72 26 0.0 0.0 0.00 0.00 0.00 49 1015.9
20260509131547 72 35 0.0 0.0 0.00 0.00 0.00 49 1015.9
20260509130055 73 315 0.0 0.0 0.00 0.00 0.00 51 1016.1
20260509124543 72 33 0.0 0.0 0.00 0.00 0.00 53 1016.3
20260509123040 71 33 0.0 0.0 0.00 0.00 0.00 53 1016.4
20260509121544 70 24 0.0 0.0 0.00 0.00 0.00 53 1016.6
20260509120035 70 27 0.0 0.0 0.00 0.00 0.00 55 1016.7
20260509114537 69 27 0.0 0.0 0.00 0.00 0.00 57 1016.7
20260509113037 67 28 0.0 0.0 0.00 0.00 0.00 56 1017.0
20260509111530 69 29 0.0 0.0 0.00 0.00 0.00 56 1017.2
20260509110032 71 31 0.0 0.0 0.00 0.00 0.00 55 1017.4
20260509104538 70 51 0.0 0.0 0.00 0.00 0.00 55 1017.5
20260509103024 69 16 0.0 0.0 0.00 0.00 0.00 58 1017.6
20260509101531 68 12 0.0 0.0 0.00 0.00 0.00 62 1017.6
20260509100017 67 29 0.0 0.0 0.00 0.00 0.00 65 1017.6
20260509094526 66 25 0.0 0.0 0.00 0.00 0.00 66 1017.6
20260509093012 66 36 0.0 0.0 0.00 0.00 0.00 66 1017.7
20260509091510 65 30 0.0 0.0 0.00 0.00 0.00 68 1017.8
20260509090007 64 32 0.0 0.0 0.00 0.00 0.00 71 1017.8
20260509084503 63 61 0.0 0.0 0.00 0.00 0.00 74 1018.0
20260509083103 61 44 0.0 0.0 0.00 0.00 0.00 78 1018.0
20260509081606 59 54 0.0 0.0 0.00 0.00 0.00 80 1018.0
20260509080050 57 34 0.0 0.0 0.00 0.00 0.00 84 1018.1
20260509080005 56 34 0.0 0.0 0.00 0.00 0.00 84 1018.0
20260509075602 56 35 0.0 0.0 0.00 0.00 0.00 84 1018.0
20260509075047 56 154 0.0 0.0 0.00 0.00 0.00 85 1018.0
20260509074600 56 19 0.0 0.0 0.00 0.00 0.00 85 1018.0
20260509074050 55 17 0.0 0.0 0.00 0.00 0.00 85 1018.1
20260509073606 55 172 0.0 0.0 0.00 0.00 0.00 85 1018.1
20260509073050 54 67 0.0 0.0 0.00 0.00 0.00 86 1018.0
20260509071545 53 46 0.0 0.0 0.00 0.00 0.00 87 1018.2
20260509070040 52 35 0.0 0.0 0.00 0.00 0.00 88 1018.1
20260509064543 52 32 0.0 0.0 0.00 0.00 0.00 90 1018.0